QPF
0.00 0.00 0.00 0.00 0.00 0.00 0.00 0.01 0.02 0.02 0.02 0.01 0.01 0.01 0.00 0.00 0.00 0.00 0.00 0.00 0.00 0.00 0.00 0.00 0.01 0.00 0.00 0.00 0.01 0.01 0.01 0.01 0.01 0.01 0.02 0.01 0.01 0.01 0.01 0.01 0.00 0.01 0.02 0.02
0.00 0.00 0.00 0.00 0.00 0.00 0.00 0.01 0.01 0.02 0.02 0.01 0.01 0.01 0.01 0.00 0.00 0.00 0.00 0.00 0.00 0.00 0.00 0.00 0.00 0.00 0.00 0.00 0.01 0.00 0.00 0.00 0.00 0.01 0.01 0.01 0.01 0.01 0.01 0.01 0.01 0.01 0.02 0.01
0.00 0.01 0.00 0.00 0.00 0.00 0.00 0.00 0.01 0.02 0.02 0.01 0.00 0.00 0.00 0.00 0.00 0.00 0.00 0.00 0.00 0.00 0.00 0.00 0.00 0.00 0.00 0.00 0.00 0.00 0.00 0.01 0.01 0.01 0.01 0.01 0.01 0.01 0.01 0.01 0.01 0.01 0.02 0.01
0.01 0.02 0.03 0.01 0.00 0.00 0.00 0.00 0.01 0.01 0.01 0.00 0.00 0.00 0.00 0.00 0.00 0.00 0.00 0.00 0.00 0.00 0.00 0.00 0.00 0.00 0.00 0.01 0.00 0.00 0.01 0.01 0.01 0.01 0.01 0.01 0.01 0.01 0.01 0.01 0.01 0.01 0.01 0.01
0.01 0.02 0.02 0.01 0.00 0.00 0.00 0.00 0.01 0.01 0.01 0.00 0.00 0.00 0.00 0.00 0.00 0.00 0.00 0.00 0.00 0.00 0.01 0.01 0.01 0.01 0.01 0.01 0.00 0.00 0.01 0.01 0.01 0.01 0.01 0.01 0.01 0.01 0.01 0.01 0.01 0.02 0.02 0.01
0.02 0.02 0.01 0.00 0.00 0.00 0.00 0.00 0.00 0.01 0.01 0.00 0.00 0.00 0.00 0.00 0.00 0.00 0.00 0.00 0.00 0.00 0.00 0.00 0.01 0.01 0.01 0.01 0.00 0.00 0.00 0.01 0.01 0.01 0.01 0.01 0.01 0.01 0.01 0.01 0.01 0.02 0.02 0.01
0.02 0.03 0.02 0.01 0.00 0.00 0.01 0.01 0.00 0.00 0.00 0.00 0.00 0.00 0.00 0.00 0.00 0.00 0.00 0.00 0.00 0.00 0.00 0.00 0.00 0.01 0.00 0.00 0.00 0.00 0.00 0.00 0.01 0.01 0.01 0.01 0.01 0.01 0.01 0.01 0.01 0.01 0.01 0.01
0.02 0.03 0.02 0.02 0.01 0.02 0.01 0.00 0.00 0.00 0.00 0.00 0.00 0.00 0.00 0.00 0.00 0.00 0.00 0.00 0.00 0.00 0.00 0.00 0.00 0.00 0.00 0.00 0.00 0.00 0.01 0.01 0.00 0.00 0.01 0.01 0.01 0.01 0.01 0.01 0.01 0.01 0.01 0.01
0.02 0.02 0.02 0.01 0.01 0.02 0.01 0.01 0.00 0.00 0.00 0.00 0.00 0.00 0.00 0.00 0.00 0.00 0.00 0.00 0.00 0.00 0.00 0.00 0.00 0.00 0.01 0.01 0.00 0.00 0.01 0.01 0.01 0.01 0.01 0.01 0.01 0.01 0.01 0.01 0.01 0.01 0.01 0.01
0.01 0.01 0.01 0.01 0.01 0.01 0.01 0.00 0.00 0.00 0.00 0.00 0.00 0.00 0.00 0.00 0.00 0.00 0.00 0.00 0.00 0.00 0.00 0.00 0.00 0.00 0.00 0.00 0.00 0.00 0.00 0.00 0.01 0.01 0.01 0.01 0.01 0.01 0.01 0.01 0.01 0.01 0.01 0.02
0.01 0.00 0.00 0.00 0.01 0.01 0.01 0.00 0.00 0.00 0.00 0.00 0.00 0.00 0.00 0.00 0.00 0.00 0.00 0.00 0.00 0.00 0.00 0.00 0.00 0.00 0.00 0.00 0.00 0.00 0.00 0.00 0.00 0.00 0.00 0.01 0.00 0.00 0.01 0.01 0.01 0.01 0.01 0.02
0.01 0.01 0.01 0.00 0.01 0.01 0.01 0.01 0.00 0.00 0.00 0.00 0.00 0.00 0.00 0.00 0.00 0.00 0.00 0.00 0.00 0.00 0.00 0.00 0.00 0.00 0.00 0.00 0.00 0.00 0.00 0.00 0.01 0.00 0.00 0.00 0.01 0.01 0.01 0.01 0.01 0.01 0.01 0.01
0.00 0.00 0.00 0.00 0.00 0.00 0.00 0.00 0.00 0.00 0.01 0.01 0.00 0.00 0.00 0.00 0.00 0.00 0.00 0.00 0.00 0.00 0.00 0.00 0.00 0.00 0.00 0.00 0.00 0.00 0.00 0.00 0.01 0.01 0.01 0.01 0.01 0.01 0.02 0.01 0.01 0.01 0.01 0.01
0.00 0.00 0.00 0.00 0.00 0.00 0.00 0.00 0.00 0.00 0.00 0.01 0.01 0.01 0.01 0.01 0.01 0.01 0.01 0.01 0.00 0.00 0.00 0.00 0.00 0.00 0.00 0.00 0.00 0.00 0.00 0.00 0.01 0.01 0.01 0.01 0.02 0.02 0.02 0.02 0.02 0.02 0.01 0.01
0.00 0.00 0.00 0.00 0.00 0.00 0.00 0.00 0.00 0.00 0.00 0.00 0.00 0.00 0.00 0.00 0.01 0.00 0.00 0.00 0.00 0.00 0.00 0.00 0.00 0.00 0.00 0.00 0.00 0.00 0.00 0.00 0.01 0.01 0.01 0.01 0.02 0.02 0.02 0.02 0.02 0.03 0.03 0.02
0.00 0.00 0.00 0.00 0.00 0.00 0.00 0.00 0.00 0.00 0.00 0.00 0.00 0.00 0.00 0.01 0.01 0.01 0.01 0.00 0.00 0.00 0.00 0.00 0.00 0.00 0.00 0.00 0.00 0.00 0.00 0.00 0.01 0.01 0.01 0.02 0.02 0.02 0.02 0.02 0.02 0.03 0.03 0.03
0.00 0.00 0.00 0.00 0.00 0.00 0.00 0.00 0.00 0.00 0.00 0.01 0.01 0.01 0.01 0.01 0.01 0.01 0.01 0.01 0.01 0.00 0.00 0.00 0.00 0.00 0.00 0.00 0.00 0.00 0.00 0.00 0.00 0.01 0.01 0.01 0.02 0.02 0.02 0.02 0.02 0.02 0.03 0.03
0.01 0.01 0.01 0.01 0.00 0.00 0.00 0.00 0.00 0.00 0.00 0.00 0.01 0.00 0.00 0.01 0.01 0.01 0.02 0.02 0.01 0.01 0.01 0.00 0.00 0.00 0.00 0.00 0.00 0.00 0.00 0.00 0.00 0.01 0.01 0.01 0.01 0.01 0.01 0.01 0.01 0.01 0.02 0.03
0.01 0.01 0.00 0.00 0.00 0.00 0.00 0.00 0.00 0.00 0.00 0.00 0.01 0.01 0.01 0.01 0.00 0.00 0.01 0.01 0.02 0.01 0.01 0.00 0.00 0.00 0.00 0.01 0.01 0.00 0.00 0.00 0.00 0.01 0.01 0.01 0.02 0.02 0.02 0.01 0.01 0.01 0.01 0.02
0.00 0.00 0.00 0.00 0.00 0.00 0.00 0.00 0.00 0.00 0.00 0.00 0.01 0.01 0.01 0.01 0.01 0.01 0.00 0.01 0.01 0.02 0.01 0.01 0.00 0.01 0.01 0.01 0.01 0.01 0.00 0.00 0.01 0.01 0.01 0.01 0.02 0.02 0.02 0.02 0.01 0.01 0.01 0.02
0.00 0.00 0.00 0.00 0.00 0.00 0.00 0.00 0.00 0.00 0.00 0.00 0.00 0.00 0.00 0.01 0.01 0.00 0.01 0.01 0.01 0.01 0.01 0.01 0.01 0.01 0.01 0.01 0.01 0.01 0.01 0.01 0.01 0.01 0.01 0.01 0.02 0.02 0.03 0.03 0.02 0.02 0.01 0.01
0.00 0.00 0.00 0.00 0.00 0.00 0.00 0.00 0.00 0.00 0.00 0.00 0.00 0.00 0.00 0.00 0.00 0.00 0.00 0.01 0.01 0.01 0.01 0.00 0.00 0.01 0.01 0.01 0.01 0.02 0.02 0.01 0.01 0.01 0.01 0.01 0.01 0.02 0.03 0.03 0.03 0.03 0.03 0.02
0.00 0.00 0.00 0.00 0.00 0.00 0.00 0.00 0.00 0.00 0.00 0.00 0.00 0.00 0.00 0.00 0.00 0.00 0.00 0.01 0.01 0.01 0.01 0.01 0.01 0.01 0.01 0.01 0.01 0.01 0.01 0.01 0.01 0.01 0.01 0.01 0.01 0.01 0.02 0.02 0.03 0.04 0.05 0.04
0.00 0.00 0.00 0.00 0.00 0.00 0.00 0.00 0.00 0.00 0.00 0.00 0.00 0.00 0.00 0.00 0.00 0.00 0.00 0.00 0.00 0.00 0.00 0.01 0.01 0.01 0.01 0.01 0.01 0.01 0.01 0.01 0.01 0.01 0.01 0.01 0.01 0.01 0.01 0.02 0.03 0.03 0.04 0.05
0.00 0.00 0.00 0.00 0.00 0.00 0.00 0.00 0.00 0.00 0.00 0.01 0.01 0.01 0.01 0.00 0.00 0.00 0.00 0.00 0.00 0.00 0.00 0.01 0.01 0.01 0.01 0.01 0.02 0.01 0.01 0.02 0.02 0.01 0.01 0.01 0.01 0.02 0.02 0.02 0.03 0.04 0.04 0.05
0.01 0.01 0.01 0.01 0.01 0.01 0.01 0.01 0.01 0.01 0.01 0.01 0.01 0.01 0.01 0.01 0.00 0.00 0.00 0.00 0.00 0.00 0.01 0.01 0.01 0.01 0.01 0.01 0.01 0.01 0.01 0.02 0.02 0.01 0.01 0.01 0.01 0.02 0.02 0.02 0.03 0.03 0.04 0.04
0.01 0.01 0.01 0.01 0.01 0.02 0.02 0.02 0.02 0.02 0.03 0.03 0.03 0.02 0.01 0.01 0.01 0.00 0.00 0.00 0.00 0.00 0.00 0.01 0.01 0.01 0.01 0.01 0.01 0.01 0.01 0.01 0.01 0.01 0.01 0.01 0.01 0.02 0.02 0.02 0.02 0.02 0.03 0.04
MSLP
1012.74 1013.20 1013.59 1013.89 1014.07 1014.11 1014.02 1013.79 1013.44 1013.00 1012.51 1012.01 1011.57 1011.24 1011.04 1011.00 1011.12 1011.37 1011.72 1012.14 1012.58 1013.00 1013.39 1013.73 1014.03 1014.28 1014.50 1014.71 1014.91 1015.10 1015.27 1015.42 1015.54 1015.64 1015.72 1015.80 1015.90 1016.03 1016.23 1016.49 1016.80 1017.17 1017.56 1017.94
1012.73 1013.13 1013.41 1013.56 1013.57 1013.45 1013.21 1012.86 1012.44 1011.97 1011.50 1011.06 1010.70 1010.44 1010.31 1010.30 1010.41 1010.63 1010.92 1011.27 1011.64 1012.01 1012.37 1012.71 1013.04 1013.35 1013.65 1013.94 1014.22 1014.48 1014.72 1014.94 1015.13 1015.29 1015.45 1015.62 1015.81 1016.05 1016.35 1016.71 1017.11 1017.55 1017.98 1018.38
1012.60 1012.93 1013.10 1013.12 1012.98 1012.72 1012.35 1011.90 1011.42 1010.94 1010.48 1010.09 1009.79 1009.60 1009.51 1009.52 1009.63 1009.81 1010.05 1010.33 1010.63 1010.94 1011.27 1011.60 1011.94 1012.29 1012.65 1013.01 1013.37 1013.71 1014.03 1014.33 1014.60 1014.85 1015.11 1015.38 1015.68 1016.03 1016.44 1016.89 1017.37 1017.86 1018.33 1018.74
1012.23 1012.47 1012.54 1012.45 1012.21 1011.84 1011.38 1010.87 1010.36 1009.87 1009.44 1009.10 1008.86 1008.72 1008.67 1008.71 1008.81 1008.97 1009.16 1009.37 1009.61 1009.86 1010.14 1010.45 1010.79 1011.16 1011.55 1011.97 1012.38 1012.79 1013.19 1013.57 1013.94 1014.29 1014.65 1015.03 1015.45 1015.90 1016.41 1016.94 1017.48 1018.02 1018.51 1018.92
1011.55 1011.71 1011.70 1011.53 1011.21 1010.79 1010.29 1009.76 1009.24 1008.78 1008.39 1008.10 1007.92 1007.83 1007.83 1007.89 1007.99 1008.13 1008.28 1008.45 1008.63 1008.84 1009.07 1009.34 1009.66 1010.02 1010.43 1010.86 1011.32 1011.78 1012.25 1012.70 1013.15 1013.61 1014.07 1014.56 1015.08 1015.63 1016.21 1016.81 1017.40 1017.97 1018.47 1018.89
1010.61 1010.67 1010.59 1010.37 1010.03 1009.59 1009.10 1008.59 1008.11 1007.69 1007.36 1007.13 1007.01 1006.97 1007.01 1007.10 1007.22 1007.35 1007.48 1007.62 1007.76 1007.92 1008.10 1008.33 1008.61 1008.95 1009.34 1009.77 1010.24 1010.74 1011.25 1011.77 1012.30 1012.83 1013.39 1013.97 1014.58 1015.21 1015.86 1016.50 1017.13 1017.71 1018.22 1018.65
1009.51 1009.47 1009.34 1009.09 1008.75 1008.35 1007.90 1007.45 1007.04 1006.69 1006.42 1006.25 1006.19 1006.20 1006.28 1006.39 1006.53 1006.66 1006.79 1006.90 1007.01 1007.13 1007.28 1007.46 1007.69 1007.98 1008.34 1008.75 1009.22 1009.72 1010.26 1010.82 1011.41 1012.02 1012.66 1013.31 1013.99 1014.68 1015.38 1016.06 1016.70 1017.29 1017.81 1018.24
1008.43 1008.29 1008.11 1007.86 1007.55 1007.20 1006.83 1006.46 1006.12 1005.84 1005.65 1005.53 1005.51 1005.56 1005.67 1005.81 1005.95 1006.09 1006.22 1006.32 1006.41 1006.50 1006.60 1006.73 1006.91 1007.15 1007.46 1007.84 1008.28 1008.78 1009.33 1009.92 1010.56 1011.22 1011.92 1012.63 1013.37 1014.10 1014.83 1015.52 1016.18 1016.77 1017.30 1017.74
1007.51 1007.30 1007.08 1006.84 1006.58 1006.30 1006.01 1005.72 1005.46 1005.25 1005.11 1005.04 1005.04 1005.10 1005.22 1005.36 1005.51 1005.65 1005.77 1005.86 1005.93 1005.99 1006.05 1006.14 1006.27 1006.46 1006.71 1007.05 1007.46 1007.94 1008.49 1009.10 1009.77 1010.47 1011.21 1011.98 1012.75 1013.51 1014.26 1014.96 1015.62 1016.22 1016.74 1017.20
1006.89 1006.61 1006.37 1006.16 1005.96 1005.75 1005.53 1005.33 1005.13 1004.97 1004.85 1004.79 1004.79 1004.85 1004.95 1005.07 1005.20 1005.33 1005.43 1005.51 1005.55 1005.58 1005.61 1005.65 1005.74 1005.87 1006.07 1006.36 1006.74 1007.20 1007.75 1008.37 1009.05 1009.79 1010.57 1011.36 1012.16 1012.94 1013.70 1014.41 1015.07 1015.67 1016.20 1016.66
1006.60 1006.27 1006.04 1005.86 1005.71 1005.57 1005.42 1005.27 1005.12 1004.98 1004.86 1004.79 1004.76 1004.77 1004.83 1004.91 1005.00 1005.09 1005.16 1005.21 1005.23 1005.23 1005.22 1005.22 1005.26 1005.35 1005.51 1005.76 1006.10 1006.55 1007.09 1007.71 1008.41 1009.17 1009.97 1010.79 1011.60 1012.40 1013.16 1013.88 1014.54 1015.13 1015.67 1016.15
1006.58 1006.25 1006.03 1005.89 1005.79 1005.70 1005.61 1005.49 1005.36 1005.22 1005.08 1004.96 1004.88 1004.83 1004.82 1004.83 1004.87 1004.90 1004.93 1004.93 1004.91 1004.88 1004.83 1004.80 1004.80 1004.85 1004.98 1005.20 1005.52 1005.95 1006.48 1007.11 1007.81 1008.58 1009.40 1010.23 1011.06 1011.86 1012.63 1013.34 1014.00 1014.60 1015.14 1015.63
1006.70 1006.39 1006.21 1006.12 1006.06 1006.02 1005.95 1005.86 1005.72 1005.56 1005.38 1005.21 1005.06 1004.94 1004.85 1004.79 1004.75 1004.72 1004.69 1004.64 1004.58 1004.50 1004.42 1004.36 1004.33 1004.35 1004.45 1004.65 1004.96 1005.37 1005.90 1006.53 1007.24 1008.01 1008.82 1009.65 1010.48 1011.28 1012.05 1012.76 1013.42 1014.02 1014.56 1015.06
1006.83 1006.57 1006.44 1006.39 1006.37 1006.36 1006.31 1006.22 1006.07 1005.88 1005.67 1005.44 1005.23 1005.03 1004.87 1004.73 1004.62 1004.52 1004.43 1004.32 1004.21 1004.09 1003.98 1003.89 1003.83 1003.83 1003.92 1004.11 1004.40 1004.81 1005.33 1005.95 1006.65 1007.42 1008.22 1009.04 1009.85 1010.63 1011.38 1012.08 1012.74 1013.34 1013.89 1014.39
1006.85 1006.66 1006.58 1006.57 1006.59 1006.60 1006.56 1006.46 1006.30 1006.09 1005.84 1005.57 1005.30 1005.05 1004.83 1004.63 1004.45 1004.29 1004.13 1003.97 1003.81 1003.65 1003.51 1003.38 1003.31 1003.30 1003.38 1003.56 1003.86 1004.26 1004.77 1005.38 1006.06 1006.80 1007.57 1008.36 1009.13 1009.89 1010.61 1011.29 1011.92 1012.52 1013.07 1013.58
1006.74 1006.62 1006.59 1006.61 1006.65 1006.66 1006.62 1006.52 1006.35 1006.12 1005.85 1005.56 1005.26 1004.98 1004.71 1004.47 1004.24 1004.02 1003.81 1003.60 1003.39 1003.19 1003.01 1002.87 1002.78 1002.77 1002.84 1003.03 1003.32 1003.72 1004.22 1004.81 1005.46 1006.16 1006.88 1007.61 1008.33 1009.03 1009.70 1010.34 1010.95 1011.53 1012.07 1012.59
1006.52 1006.46 1006.47 1006.51 1006.55 1006.55 1006.50 1006.39 1006.21 1005.98 1005.70 1005.41 1005.11 1004.81 1004.52 1004.25 1003.98 1003.72 1003.47 1003.21 1002.96 1002.72 1002.51 1002.34 1002.24 1002.22 1002.31 1002.49 1002.79 1003.19 1003.67 1004.23 1004.84 1005.49 1006.15 1006.80 1007.44 1008.07 1008.67 1009.25 1009.81 1010.36 1010.89 1011.41
1006.27 1006.26 1006.29 1006.33 1006.35 1006.34 1006.26 1006.13 1005.94 1005.71 1005.44 1005.16 1004.87 1004.57 1004.28 1003.99 1003.70 1003.41 1003.10 1002.80 1002.50 1002.22 1001.98 1001.79 1001.68 1001.66 1001.74 1001.94 1002.24 1002.63 1003.10 1003.63 1004.19 1004.77 1005.35 1005.92 1006.47 1007.00 1007.52 1008.02 1008.52 1009.03 1009.53 1010.04
1006.10 1006.11 1006.14 1006.16 1006.15 1006.09 1005.98 1005.82 1005.62 1005.38 1005.13 1004.86 1004.58 1004.30 1004.01 1003.71 1003.39 1003.06 1002.71 1002.35 1002.00 1001.67 1001.39 1001.17 1001.05 1001.02 1001.11 1001.31 1001.61 1002.00 1002.46 1002.95 1003.47 1003.98 1004.48 1004.95 1005.40 1005.84 1006.25 1006.68 1007.11 1007.56 1008.03 1008.53
1006.07 1006.09 1006.09 1006.06 1005.99 1005.88 1005.72 1005.52 1005.30 1005.06 1004.81 1004.55 1004.28 1004.01 1003.71 1003.40 1003.05 1002.67 1002.26 1001.85 1001.43 1001.04 1000.71 1000.46 1000.30 1000.26 1000.35 1000.55 1000.85 1001.24 1001.68 1002.15 1002.62 1003.08 1003.50 1003.89 1004.24 1004.58 1004.91 1005.25 1005.61 1006.01 1006.45 1006.93
1006.20 1006.19 1006.15 1006.06 1005.93 1005.74 1005.53 1005.28 1005.03 1004.77 1004.51 1004.25 1003.99 1003.70 1003.39 1003.04 1002.65 1002.21 1001.74 1001.24 1000.75 1000.29 999.90 999.59 999.40 999.34 999.41 999.61 999.91 1000.29 1000.73 1001.18 1001.61 1002.02 1002.39 1002.71 1002.99 1003.24 1003.50 1003.77 1004.08 1004.43 1004.85 1005.32
1006.42 1006.38 1006.28 1006.13 1005.92 1005.66 1005.38 1005.09 1004.80 1004.51 1004.24 1003.96 1003.68 1003.38 1003.04 1002.64 1002.19 1001.68 1001.12 1000.54 999.96 999.41 998.94 998.58 998.34 998.24 998.29 998.47 998.77 999.15 999.57 1000.01 1000.43 1000.81 1001.14 1001.42 1001.65 1001.86 1002.07 1002.30 1002.57 1002.91 1003.31 1003.79
1006.65 1006.56 1006.41 1006.18 1005.90 1005.58 1005.25 1004.91 1004.58 1004.26 1003.96 1003.67 1003.36 1003.03 1002.64 1002.19 1001.66 1001.07 1000.42 999.75 999.07 998.44 997.89 997.45 997.15 997.01 997.02 997.18 997.47 997.84 998.26 998.69 999.11 999.48 999.80 1000.07 1000.29 1000.49 1000.68 1000.91 1001.18 1001.52 1001.93 1002.43
1006.78 1006.65 1006.43 1006.15 1005.82 1005.45 1005.06 1004.69 1004.33 1004.00 1003.68 1003.36 1003.02 1002.65 1002.21 1001.70 1001.11 1000.44 999.70 998.93 998.17 997.45 996.81 996.30 995.94 995.74 995.71 995.84 996.11 996.46 996.88 997.31 997.74 998.12 998.46 998.74 998.98 999.20 999.42 999.67 999.97 1000.34 1000.79 1001.32
1006.74 1006.56 1006.30 1005.98 1005.61 1005.21 1004.80 1004.41 1004.04 1003.70 1003.37 1003.04 1002.68 1002.27 1001.80 1001.23 1000.58 999.84 999.03 998.19 997.35 996.55 995.84 995.26 994.84 994.59 994.51 994.61 994.84 995.18 995.59 996.03 996.46 996.87 997.23 997.56 997.84 998.11 998.38 998.69 999.04 999.45 999.95 1000.52
1006.50 1006.29 1006.00 1005.66 1005.27 1004.86 1004.46 1004.08 1003.72 1003.38 1003.05 1002.72 1002.35 1001.93 1001.43 1000.84 1000.15 999.37 998.52 997.62 996.73 995.88 995.13 994.50 994.02 993.73 993.61 993.66 993.86 994.17 994.56 995.00 995.45 995.88 996.28 996.65 996.99 997.32 997.66 998.02 998.44 998.92 999.46 1000.08
1006.10 1005.87 1005.56 1005.21 1004.84 1004.45 1004.07 1003.71 1003.38 1003.07 1002.77 1002.45 1002.10 1001.68 1001.18 1000.59 999.89 999.10 998.23 997.33 996.43 995.56 994.79 994.13 993.63 993.30 993.15 993.16 993.33 993.61 993.98 994.40 994.85 995.30 995.73 996.14 996.53 996.92 997.32 997.75 998.22 998.75 999.34 999.99
Thickness
5717 5724 5722 5718 5717 5719 5716 5716 5709 5714 5719 5727 5732 5733 5735 5736 5734 5731 5727 5725 5723 5720 5719 5717 5715 5713 5710 5707 5704 5701 5697 5692 5690 5688 5686 5683 5680 5678 5675 5673 5672 5669 5667 5665
5707 5717 5718 5715 5719 5720 5719 5720 5718 5718 5719 5734 5737 5736 5733 5732 5729 5724 5722 5721 5720 5718 5716 5714 5712 5710 5707 5704 5702 5699 5694 5690 5687 5684 5681 5678 5676 5673 5670 5668 5666 5664 5662 5659
5691 5705 5705 5701 5718 5720 5719 5723 5720 5712 5720 5731 5728 5728 5728 5728 5724 5720 5718 5716 5715 5714 5713 5711 5711 5709 5704 5702 5699 5695 5690 5686 5683 5679 5676 5673 5671 5668 5665 5662 5661 5659 5657 5655
5687 5688 5676 5708 5731 5728 5722 5724 5727 5724 5725 5726 5726 5726 5728 5727 5722 5717 5716 5713 5712 5711 5710 5710 5709 5706 5703 5700 5696 5691 5686 5682 5679 5675 5671 5669 5666 5663 5660 5658 5656 5654 5652 5651
5678 5674 5685 5706 5720 5720 5713 5712 5723 5721 5721 5723 5725 5720 5717 5722 5721 5716 5714 5712 5710 5709 5707 5706 5703 5701 5698 5695 5691 5686 5682 5679 5676 5672 5667 5664 5660 5658 5656 5653 5651 5649 5648 5646
5674 5666 5668 5694 5715 5723 5713 5697 5715 5716 5713 5713 5711 5697 5700 5712 5714 5711 5709 5708 5705 5704 5702 5699 5697 5695 5691 5687 5684 5680 5678 5676 5672 5669 5664 5660 5657 5654 5652 5649 5646 5645 5643 5641
5667 5665 5677 5700 5710 5710 5683 5684 5705 5709 5707 5705 5700 5699 5703 5707 5705 5704 5702 5700 5699 5697 5693 5691 5691 5688 5684 5680 5677 5676 5674 5672 5668 5664 5660 5657 5653 5649 5646 5644 5641 5639 5637 5636
5665 5660 5666 5693 5696 5685 5686 5698 5700 5700 5702 5700 5698 5699 5698 5697 5695 5694 5693 5692 5690 5687 5685 5684 5683 5680 5676 5673 5673 5671 5668 5665 5662 5660 5657 5653 5648 5644 5641 5638 5634 5632 5630 5629
5668 5668 5683 5689 5688 5690 5691 5690 5692 5692 5694 5693 5690 5689 5688 5687 5686 5685 5684 5683 5682 5679 5676 5676 5675 5672 5668 5667 5667 5664 5661 5658 5656 5654 5650 5647 5643 5638 5634 5631 5628 5626 5624 5622
5667 5673 5678 5682 5684 5684 5684 5682 5685 5686 5686 5685 5682 5682 5679 5678 5677 5676 5676 5675 5674 5671 5668 5667 5667 5665 5663 5662 5660 5657 5654 5652 5650 5647 5644 5641 5637 5633 5629 5625 5622 5620 5617 5615
5657 5665 5668 5672 5672 5673 5674 5675 5675 5676 5676 5675 5674 5673 5672 5670 5669 5668 5667 5666 5665 5662 5660 5659 5659 5658 5657 5655 5653 5650 5648 5645 5644 5641 5638 5633 5630 5627 5624 5621 5618 5615 5612 5610
5644 5655 5653 5656 5663 5665 5663 5664 5664 5664 5664 5666 5665 5664 5663 5662 5661 5660 5659 5658 5656 5654 5652 5652 5651 5650 5649 5648 5646 5643 5640 5638 5636 5634 5631 5627 5623 5619 5617 5615 5613 5610 5608 5604
5646 5649 5649 5652 5655 5656 5655 5656 5657 5656 5655 5656 5657 5657 5655 5654 5653 5652 5651 5649 5648 5647 5646 5645 5644 5642 5642 5640 5638 5636 5633 5631 5628 5626 5623 5620 5617 5613 5609 5606 5605 5603 5600 5598
5638 5637 5636 5640 5642 5646 5647 5648 5648 5648 5649 5649 5649 5648 5647 5645 5645 5643 5642 5642 5641 5640 5639 5637 5635 5634 5634 5632 5630 5628 5626 5623 5621 5619 5616 5613 5610 5607 5604 5600 5597 5595 5593 5591
5626 5627 5628 5632 5634 5636 5638 5637 5636 5636 5637 5638 5639 5639 5638 5636 5635 5635 5635 5634 5632 5631 5630 5629 5627 5625 5625 5623 5621 5619 5617 5615 5613 5611 5609 5606 5603 5600 5597 5595 5592 5589 5586 5582
5617 5619 5620 5621 5622 5624 5625 5625 5625 5626 5627 5628 5629 5629 5629 5628 5628 5627 5626 5625 5623 5621 5621 5620 5618 5617 5616 5614 5612 5611 5608 5607 5604 5602 5600 5598 5595 5592 5589 5587 5585 5582 5579 5576
5604 5607 5609 5611 5613 5615 5616 5617 5618 5618 5619 5619 5620 5621 5620 5619 5618 5616 5616 5615 5614 5614 5613 5611 5610 5609 5608 5606 5603 5601 5599 5597 5596 5593 5592 5590 5587 5584 5581 5578 5576 5574 5571 5569
5599 5601 5603 5604 5605 5606 5608 5609 5611 5611 5611 5612 5612 5611 5610 5608 5607 5606 5606 5606 5605 5604 5604 5603 5601 5600 5598 5597 5594 5592 5590 5588 5586 5585 5583 5581 5578 5576 5573 5570 5568 5565 5562 5560
5591 5593 5595 5597 5598 5599 5600 5600 5602 5603 5603 5602 5601 5600 5600 5600 5599 5598 5598 5596 5595 5594 5594 5594 5592 5590 5589 5587 5585 5583 5581 5580 5578 5576 5574 5572 5569 5567 5564 5562 5559 5557 5554 5551
5583 5584 5586 5588 5589 5590 5591 5592 5593 5593 5594 5593 5592 5591 5590 5590 5589 5589 5588 5587 5587 5587 5586 5584 5583 5581 5580 5578 5576 5574 5572 5571 5569 5567 5565 5562 5560 5558 5556 5553 5550 5548 5545 5542
5574 5575 5576 5578 5579 5581 5582 5582 5583 5583 5584 5584 5582 5581 5581 5581 5581 5580 5579 5578 5579 5577 5577 5575 5573 5572 5571 5569 5566 5565 5564 5562 5561 5559 5557 5554 5552 5549 5546 5544 5541 5538 5535 5533
5566 5566 5567 5568 5569 5570 5572 5573 5574 5574 5573 5573 5573 5573 5572 5572 5572 5571 5571 5569 5569 5567 5567 5565 5564 5563 5562 5560 5558 5557 5555 5554 5552 5550 5548 5545 5543 5540 5537 5534 5531 5528 5525 5522
5556 5557 5558 5559 5559 5561 5563 5564 5564 5564 5564 5564 5564 5563 5563 5563 5562 5561 5560 5560 5559 5558 5557 5556 5555 5554 5553 5551 5549 5548 5547 5545 5543 5541 5539 5537 5534 5531 5528 5525 5521 5518 5515 5512
5546 5547 5548 5549 5550 5550 5551 5552 5554 5555 5554 5554 5555 5555 5554 5553 5554 5554 5553 5552 5551 5549 5547 5546 5545 5545 5543 5541 5540 5539 5537 5536 5534 5532 5530 5527 5524 5521 5518 5515 5511 5508 5505 5501
5536 5537 5538 5539 5539 5540 5542 5543 5543 5543 5544 5544 5545 5546 5546 5545 5544 5544 5543 5542 5541 5539 5538 5537 5536 5535 5533 5532 5530 5529 5528 5526 5524 5522 5520 5517 5514 5510 5508 5505 5501 5498 5495 5491
5527 5528 5529 5530 5531 5531 5533 5533 5532 5532 5533 5533 5534 5535 5536 5536 5535 5533 5532 5532 5531 5530 5528 5527 5526 5524 5523 5522 5520 5519 5517 5515 5513 5511 5509 5506 5503 5500 5498 5495 5492 5488 5485 5481
5519 5520 5521 5521 5522 5523 5523 5523 5522 5522 5523 5523 5523 5524 5525 5525 5524 5523 5522 5521 5520 5519 5518 5518 5517 5515 5513 5511 5509 5508 5506 5505 5502 5500 5498 5495 5493 5490 5488 5485 5482 5479 5475 5471